GW7220 Weather Reports


time (UTC)temp
F
wind
direction
speed
knots
gust
knots
rain 1hr
in
rain 24hr
in
rain mn
in
humidity
%
barometer
mb
20260505092141 58 69 0.0 0.9 0.00 0.00 0.00 73 1008.2
20260505091637 58 64 1.7 1.7 0.00 0.00 0.00 75 1008.2
20260505091135 57 119 0.9 0.9 0.00 0.00 0.00 76 1008.0
20260505090632 57 127 0.9 1.7 0.00 0.00 0.00 76 1008.1
20260505090131 56 71 0.0 1.7 0.00 0.00 0.00 78 1008.1
20260505085628 56 63 0.0 0.0 0.00 0.00 0.00 77 1008.1
20260505085126 57 73 0.0 0.0 0.00 0.00 0.00 76 1008.3
20260505084623 57 88 0.0 0.9 0.00 0.00 0.00 77 1008.1
20260505084122 57 106 0.0 0.9 0.00 0.00 0.00 76 1008.2
20260505083619 57 46 0.0 0.0 0.00 0.00 0.00 76 1008.1
20260505083115 57 89 0.0 0.9 0.00 0.00 0.00 76 1008.3
20260505082611 57 98 0.0 0.0 0.00 0.00 0.00 75 1008.1
20260505082108 57 91 0.0 0.0 0.00 0.00 0.00 75 1008.2
20260505081604 57 44 0.0 0.0 0.00 0.00 0.00 74 1008.2
20260505081102 58 101 0.0 0.9 0.00 0.00 0.00 73 1008.0
20260505080557 58 69 0.0 0.0 0.00 0.00 0.00 73 1008.0
20260505080055 58 78 0.0 0.0 0.00 0.00 0.00 72 1007.8
20260505075550 59 59 0.0 0.0 0.00 0.00 0.00 72 1008.2
20260505075047 59 73 0.0 0.9 0.00 0.00 0.00 72 1008.1
20260505074544 59 132 0.9 0.9 0.00 0.00 0.00 72 1008.4
20260505074042 59 79 0.0 0.9 0.00 0.00 0.00 72 1008.3
20260505073539 59 71 0.0 0.9 0.00 0.00 0.00 72 1008.3
20260505073038 58 125 0.9 0.9 0.00 0.00 0.00 72 1008.3
20260505072532 58 83 0.0 1.7 0.00 0.00 0.00 72 1008.1
20260505072029 58 82 0.0 0.0 0.00 0.00 0.00 71 1008.1
20260505071525 59 73 0.0 0.9 0.00 0.00 0.00 71 1008.1
20260505071023 59 94 0.0 0.9 0.00 0.00 0.00 71 1008.2
20260505070520 59 65 0.0 1.7 0.00 0.00 0.00 70 1008.3
20260505070016 59 64 0.0 0.0 0.00 0.00 0.00 70 1008.3
20260505065512 59 68 0.0 0.0 0.00 0.00 0.00 70 1008.2
20260505065009 59 83 0.0 0.9 0.00 0.00 0.00 70 1008.1
20260505064506 59 98 0.9 0.9 0.00 0.00 0.00 70 1007.8
20260505064004 59 359 1.7 1.7 0.00 0.00 0.00 70 1008.3
20260505063501 59 75 0.0 0.9 0.00 0.00 0.00 70 1007.9
20260505062957 59 82 0.0 0.9 0.00 0.00 0.00 69 1007.9
20260505062454 59 4 0.9 1.7 0.00 0.00 0.00 69 1008.1
20260505061951 59 63 0.9 0.9 0.00 0.00 0.00 69 1008.1
20260505061449 59 59 0.0 0.0 0.00 0.00 0.00 68 1008.0
20260505060946 59 72 0.0 2.6 0.00 0.00 0.00 68 1008.0
20260505060443 59 150 1.7 2.6 0.00 0.00 0.00 68 1007.8
20260505055939 59 87 0.0 1.7 0.00 0.00 0.00 68 1007.9
20260505055435 59 102 0.9 0.9 0.00 0.00 0.00 67 1007.7
20260505054932 60 64 0.9 1.7 0.00 0.00 0.00 67 1007.9
20260505054430 60 90 0.0 0.9 0.00 0.00 0.00 66 1008.1
20260505053927 60 69 1.7 2.6 0.00 0.00 0.00 65 1008.0
20260505053424 60 104 0.0 2.6 0.00 0.00 0.00 64 1008.1
20260505052921 60 18 0.9 1.7 0.00 0.00 0.00 64 1008.0
20260505052418 60 111 0.0 1.7 0.00 0.00 0.00 65 1008.2
20260505051915 60 114 0.9 0.9 0.00 0.00 0.00 65 1008.1
20260505051412 60 123 0.0 0.9 0.00 0.00 0.00 64 1008.3
20260505050910 60 223 2.6 2.6 0.00 0.00 0.00 64 1008.1
20260505050409 60 70 0.9 0.9 0.00 0.00 0.00 63 1008.3
20260505041336 61 353 0.0 0.9 0.00 0.00 0.00 61 1008.0
20260505040833 61 96 0.0 0.9 0.00 0.00 0.00 61 1008.1
20260505040331 61 34 0.9 1.7 0.00 0.00 0.00 60 1007.8
20260505035827 60 73 0.0 1.7 0.00 0.00 0.00 60 1008.0
20260505035323 61 68 0.0 0.0 0.00 0.00 0.00 59 1007.9
20260505034821 61 51 0.0 0.9 0.00 0.00 0.00 58 1008.2
20260505034317 61 68 1.7 2.6 0.00 0.00 0.00 58 1007.9
20260505033814 60 105 0.9 2.6 0.00 0.00 0.00 58 1008.0
20260505033311 61 73 0.0 0.9 0.00 0.00 0.00 55 1007.9
20260505032809 61 16 0.0 0.9 0.00 0.00 0.00 54 1007.9
20260505032305 62 31 0.0 0.9 0.00 0.00 0.00 52 1007.9
20260505031802 62 124 0.9 2.6 0.00 0.00 0.00 52 1008.1
20260505031259 62 90 0.0 2.6 0.00 0.00 0.00 52 1008.2
20260505030756 62 73 0.0 0.9 0.00 0.00 0.00 52 1008.2
20260505030252 62 86 0.0 0.9 0.00 0.00 0.00 52 1008.0
20260505025747 62 71 0.0 0.9 0.00 0.00 0.00 51 1008.3
20260505025246 62 105 0.0 0.0 0.00 0.00 0.00 51 1008.3
20260505024743 62 34 0.0 0.0 0.00 0.00 0.00 51 1008.4
20260505024240 62 70 0.0 0.9 0.00 0.00 0.00 51 1008.2
20260505023738 62 67 0.0 1.7 0.00 0.00 0.00 51 1008.2
20260505023235 62 127 0.9 0.9 0.00 0.00 0.00 52 1008.4
20260505022732 62 77 0.0 0.9 0.00 0.00 0.00 52 1008.4
20260505022229 62 82 0.9 1.7 0.00 0.00 0.00 52 1008.5
20260505021726 62 123 0.9 0.9 0.00 0.00 0.00 52 1008.6
20260505021223 62 81 0.0 0.9 0.00 0.00 0.00 52 1008.3
20260505020718 62 103 0.0 0.9 0.00 0.00 0.00 51 1008.6
20260505020214 62 133 0.0 0.9 0.00 0.00 0.00 51 1008.1
20260505015712 63 110 0.0 0.9 0.00 0.00 0.00 51 1008.3
20260505015209 63 38 0.0 1.7 0.00 0.00 0.00 50 1008.2
20260505014705 63 86 0.0 0.9 0.00 0.00 0.00 50 1008.3
20260505014203 63 96 0.9 0.9 0.00 0.00 0.00 51 1008.1
20260505013700 63 130 0.0 0.9 0.00 0.00 0.00 50 1008.2
20260505013157 62 56 0.0 1.7 0.00 0.00 0.00 52 1008.4
20260505012655 63 145 0.0 0.9 0.00 0.00 0.00 51 1008.4
20260505012152 63 104 0.0 0.0 0.00 0.00 0.00 50 1008.3
20260505011652 62 124 0.9 1.7 0.00 0.00 0.00 51 1008.1
20260505011150 62 79 0.0 0.0 0.00 0.00 0.00 51 1008.3
20260505010645 62 119 0.9 0.9 0.00 0.00 0.00 50 1008.0
20260505010142 63 77 0.0 0.0 0.00 0.00 0.00 50 1008.0
20260505005638 63 120 0.0 0.9 0.00 0.00 0.00 49 1008.0
20260505005135 63 99 0.0 0.0 0.00 0.00 0.00 47 1007.9
20260505004632 63 85 0.0 0.0 0.00 0.00 0.00 47 1007.8
20260505004129 64 112 0.0 0.9 0.00 0.00 0.00 47 1007.8
20260505003626 64 96 0.0 0.9 0.00 0.00 0.00 46 1007.7
20260505003124 64 101 0.0 0.9 0.00 0.00 0.00 46 1007.8
20260505002619 64 89 0.0 0.9 0.00 0.00 0.00 46 1007.7
20260505002118 64 125 0.0 0.9 0.00 0.00 0.00 44 1007.5
20260505001615 64 100 0.9 0.9 0.00 0.00 0.00 46 1007.6
20260505001113 65 86 0.0 0.0 0.00 0.00 0.00 44 1007.7
20260505000609 65 117 0.0 0.9 0.00 0.00 0.00 44 1007.6
20260505000107 66 113 0.9 0.9 0.00 0.00 0.00 42 1007.5
20260504235603 66 114 0.9 1.7 0.00 0.00 0.00 43 1007.6
20260504235100 66 114 0.9 0.9 0.00 0.00 0.00 42 1007.4
20260504234557 67 103 0.9 0.9 0.00 0.00 0.00 41 1007.5
20260504234054 67 101 0.0 0.9 0.00 0.00 0.00 41 1007.2
20260504233549 68 108 0.9 1.7 0.00 0.00 0.00 40 1007.4
20260504233046 68 162 0.9 2.6 0.00 0.00 0.00 39 1007.4
20260504232543 68 90 0.9 1.7 0.00 0.00 0.00 39 1007.3
20260504232041 68 199 1.7 2.6 0.00 0.00 0.00 38 1007.3
20260504231537 69 183 0.9 5.2 0.00 0.00 0.00 39 1007.4
20260504231033 69 97 0.0 1.7 0.00 0.00 0.00 37 1007.2
20260504230530 69 113 0.9 1.7 0.00 0.00 0.00 36 1007.5
20260504230029 70 227 0.9 5.2 0.00 0.00 0.00 38 1007.0
20260504225526 71 192 2.6 3.5 0.00 0.00 0.00 35 1007.3
20260504225023 71 110 0.9 2.6 0.00 0.00 0.00 34 1007.2
20260504224519 71 163 1.7 1.7 0.00 0.00 0.00 36 1007.1
20260504224017 71 325 1.7 5.2 0.00 0.00 0.00 35 1007.3
20260504223513 72 105 0.9 2.6 0.00 0.00 0.00 35 1007.4
20260504223009 72 344 0.9 0.9 0.00 0.00 0.00 33 1007.4
20260504222506 72 97 1.7 2.6 0.00 0.00 0.00 34 1007.4
20260504222003 72 79 0.9 2.6 0.00 0.00 0.00 34 1007.6
20260504221500 72 184 0.0 2.6 0.00 0.00 0.00 34 1007.4
20260504220957 72 167 1.7 2.6 0.00 0.00 0.00 35 1007.1
20260504220454 72 163 1.7 2.6 0.00 0.00 0.00 35 1007.4
20260504215951 72 93 0.9 2.6 0.00 0.00 0.00 34 1007.4
20260504215447 72 142 2.6 3.5 0.00 0.00 0.00 35 1007.4
20260504214944 72 140 0.9 5.2 0.00 0.00 0.00 37 1007.6
20260504214440 72 118 0.9 1.7 0.00 0.00 0.00 35 1007.5
20260504213937 73 140 2.6 5.2 0.00 0.00 0.00 35 1007.5
20260504213433 73 92 1.7 3.5 0.00 0.00 0.00 34 1007.7
20260504212931 74 356 0.9 7.0 0.00 0.00 0.00 32 1007.6
20260504212426 74 49 0.0 1.7 0.00 0.00 0.00 32 1007.7
20260504211925 74 266 0.9 1.7 0.00 0.00 0.00 34 1007.8
20260504211420 73 195 4.3 6.1 0.00 0.00 0.00 32 1007.7
20260504210918 75 16 0.9 3.5 0.00 0.00 0.00 31 1007.6
20260504210415 74 38 0.0 1.7 0.00 0.00 0.00 32 1007.4
20260504205912 74 54 0.9 2.6 0.00 0.00 0.00 31 1007.6
20260504205410 73 247 0.9 1.7 0.00 0.00 0.00 32 1007.7
20260504204908 74 276 2.6 9.6 0.00 0.00 0.00 32 1007.5
20260504204406 74 36 0.9 1.7 0.00 0.00 0.00 31 1007.6
20260504203905 75 98 0.9 3.5 0.00 0.00 0.00 32 1007.7
20260504203401 75 113 0.9 1.7 0.00 0.00 0.00 31 1007.7
20260504202857 74 186 0.0 0.9 0.00 0.00 0.00 35 1007.4
20260504202354 74 66 0.9 3.5 0.00 0.00 0.00 32 1007.7
20260504201851 75 73 1.7 3.5 0.00 0.00 0.00 31 1007.7
20260504201348 74 349 3.5 3.5 0.00 0.00 0.00 32 1007.7
20260504200846 74 53 1.7 1.7 0.00 0.00 0.00 34 1007.9
20260504200342 74 98 0.9 5.2 0.00 0.00 0.00 31 1007.9
20260504195839 75 182 2.6 3.5 0.00 0.00 0.00 34 1007.7
20260504195334 75 262 2.6 3.5 0.00 0.00 0.00 30 1007.8
20260504194831 75 96 0.9 3.5 0.00 0.00 0.00 30 1007.8
20260504194327 75 162 0.9 1.7 0.00 0.00 0.00 32 1007.7
20260504193823 75 45 0.9 2.6 0.00 0.00 0.00 29 1007.8
20260504193321 75 70 0.9 7.0 0.00 0.00 0.00 30 1007.9
20260504192819 75 149 0.9 2.6 0.00 0.00 0.00 31 1007.8
20260504192317 74 41 1.7 2.6 0.00 0.00 0.00 32 1007.9
20260504191815 74 101 1.7 6.1 0.00 0.00 0.00 34 1007.8
20260504191313 74 194 2.6 6.1 0.00 0.00 0.00 30 1008.0
20260504190808 74 27 1.7 2.6 0.00 0.00 0.00 34 1008.1
20260504190304 74 100 0.9 1.7 0.00 0.00 0.00 31 1008.4
20260504185801 74 31 0.0 2.6 0.00 0.00 0.00 32 1008.4
20260504185258 74 49 0.9 6.1 0.00 0.00 0.00 34 1008.5
20260504184754 74 187 1.7 3.5 0.00 0.00 0.00 35 1008.5
20260504184250 74 212 1.7 6.1 0.00 0.00 0.00 36 1008.6
20260504183746 75 188 1.7 3.5 0.00 0.00 0.00 31 1008.5
20260504183243 74 23 0.9 3.5 0.00 0.00 0.00 38 1008.5
20260504182741 73 21 0.0 6.1 0.00 0.00 0.00 32 1008.6
20260504182238 73 76 1.7 5.2 0.00 0.00 0.00 34 1009.1
20260504181736 73 30 0.0 6.1 0.00 0.00 0.00 32 1009.0
20260504181233 73 12 1.7 2.6 0.00 0.00 0.00 34 1008.9
20260504180732 73 338 1.7 5.2 0.00 0.00 0.00 33 1009.2
20260504180230 73 281 0.9 2.6 0.00 0.00 0.00 33 1009.2
20260504175727 73 164 2.6 5.2 0.00 0.00 0.00 34 1009.1
20260504175224 73 333 0.9 8.7 0.00 0.00 0.00 31 1009.1
20260504174722 73 90 0.0 5.2 0.00 0.00 0.00 32 1009.3
20260504174220 73 107 2.6 5.2 0.00 0.00 0.00 36 1009.4
20260504173715 72 237 1.7 5.2 0.00 0.00 0.00 33 1009.6
20260504173213 72 359 2.6 3.5 0.00 0.00 0.00 34 1009.5
20260504172709 72 120 0.9 7.0 0.00 0.00 0.00 35 1009.6
20260504172206 72 34 1.7 3.5 0.00 0.00 0.00 32 1009.5
20260504171702 72 130 2.6 3.5 0.00 0.00 0.00 32 1009.9
20260504171159 72 108 1.7 5.2 0.00 0.00 0.00 34 1009.8
20260504170656 71 187 1.7 3.5 0.00 0.00 0.00 36 1009.9
20260504170154 71 5 0.9 6.1 0.00 0.00 0.00 32 1010.0
20260504160112 70 98 0.9 5.2 0.00 0.00 0.00 37 1010.9
20260504151039 68 328 1.7 5.2 0.00 0.00 0.00 38 1011.3
20260504150536 68 291 1.7 6.1 0.00 0.00 0.00 37 1011.3
20260504141002 66 123 0.9 2.6 0.00 0.00 0.00 46 1011.2
20260504140459 66 93 2.6 2.6 0.00 0.00 0.00 47 1011.5
20260504130423 61 217 1.7 5.2 0.00 0.00 0.00 54 1011.9
20260504110310 48 57 0.0 0.9 0.00 0.00 0.00 79 1012.5
20260504100228 46 66 0.0 0.9 0.00 0.00 0.00 75 1012.6